TimeMDT,TemperatureF,Dew PointF,Humidity,Sea Level PressureIn,VisibilityMPH,Wind Direction,Wind SpeedMPH,Gust SpeedMPH,PrecipitationIn,Events,Conditions,WindDirDegrees,DateUTC
12:15 AM,32.0,30.2,93,29.96,-9999.0,NW,11.5,-,N/A,,Overcast,320,2013-04-12 06:15:00
12:35 AM,30.2,30.2,100,29.95,-9999.0,WNW,12.7,-,N/A,,Overcast,300,2013-04-12 06:35:00
12:55 AM,32.0,30.2,93,29.96,-9999.0,NW,11.5,-,N/A,,Unknown,320,2013-04-12 06:55:00
1:15 AM,32.0,30.2,93,29.96,-9999.0,NW,12.7,-,N/A,,Unknown,310,2013-04-12 07:15:00
1:35 AM,32.0,30.2,93,29.96,-9999.0,NW,11.5,-,N/A,,Unknown,310,2013-04-12 07:35:00
1:55 AM,32.0,30.2,93,29.96,-9999.0,NW,12.7,-,N/A,,Overcast,310,2013-04-12 07:55:00
2:15 AM,32.0,30.2,93,29.96,-9999.0,NW,12.7,-,N/A,,Overcast,310,2013-04-12 08:15:00
2:35 AM,30.2,30.2,100,29.95,-9999.0,WNW,15.0,-,N/A,,Overcast,300,2013-04-12 08:35:00
2:55 AM,30.2,30.2,100,29.95,-9999.0,NW,16.1,-,N/A,,Overcast,320,2013-04-12 08:55:00
3:15 AM,30.2,30.2,100,29.94,-9999.0,NW,20.7,-,N/A,,Overcast,310,2013-04-12 09:15:00
3:35 AM,30.2,30.2,100,29.94,-9999.0,NW,25.3,-,N/A,,Overcast,320,2013-04-12 09:35:00
3:55 AM,28.4,28.4,100,29.94,-9999.0,North,-9999.0,-,N/A,,Overcast,0,2013-04-12 09:55:00
4:15 AM,28.4,28.4,100,29.94,-9999.0,North,-9999.0,-,N/A,,Overcast,0,2013-04-12 10:15:00
4:35 AM,28.4,28.4,100,29.94,-9999.0,North,-9999.0,-,N/A,,Overcast,0,2013-04-12 10:35:00
4:55 AM,28.4,28.4,100,29.95,-9999.0,NW,19.6,-,N/A,,Overcast,320,2013-04-12 10:55:00
5:15 AM,28.4,28.4,100,29.95,-9999.0,NW,20.7,-,N/A,,Overcast,310,2013-04-12 11:15:00
5:35 AM,28.4,28.4,100,29.95,-9999.0,NW,23.0,-,N/A,,Overcast,310,2013-04-12 11:35:00
5:55 AM,28.4,28.4,100,29.94,-9999.0,North,-9999.0,-,N/A,,Overcast,0,2013-04-12 11:55:00
6:15 AM,26.6,26.6,100,29.95,-9999.0,NW,38.0,43.7,N/A,,Overcast,320,2013-04-12 12:15:00
6:35 AM,26.6,24.8,93,29.95,-9999.0,NW,36.8,-,N/A,,Overcast,310,2013-04-12 12:35:00
6:55 AM,26.6,24.8,93,29.95,-9999.0,NW,36.8,41.4,N/A,,Overcast,320,2013-04-12 12:55:00
7:15 AM,26.6,23.0,86,29.97,-9999.0,NW,29.9,-,N/A,,Overcast,310,2013-04-12 13:15:00
7:35 AM,24.8,23.0,93,29.97,-9999.0,NW,31.1,-,N/A,,Overcast,310,2013-04-12 13:35:00
8:15 AM,24.8,23.0,93,29.98,-9999.0,NW,32.2,-,N/A,,Overcast,310,2013-04-12 14:15:00
8:35 AM,24.8,23.0,93,29.98,-9999.0,WNW,33.4,-,N/A,,Overcast,300,2013-04-12 14:35:00
8:55 AM,24.8,23.0,93,29.99,-9999.0,WNW,31.1,-,N/A,,Overcast,300,2013-04-12 14:55:00
9:15 AM,24.8,23.0,93,30.00,-9999.0,NW,28.8,-,N/A,,Overcast,310,2013-04-12 15:15:00
9:35 AM,24.8,23.0,93,30.00,-9999.0,WNW,28.8,-,N/A,,Unknown,300,2013-04-12 15:35:00
9:55 AM,24.8,23.0,93,30.01,-9999.0,WNW,28.8,-,N/A,,Unknown,300,2013-04-12 15:55:00
10:15 AM,24.8,23.0,93,30.02,-9999.0,NW,26.5,-,N/A,,Overcast,310,2013-04-12 16:15:00
10:35 AM,26.6,23.0,86,30.04,-9999.0,NW,24.2,-,N/A,,Overcast,310,2013-04-12 16:35:00
11:15 AM,26.6,24.8,93,30.05,-9999.0,NW,23.0,-,N/A,,Unknown,310,2013-04-12 17:15:00
11:35 AM,26.6,24.8,93,30.06,-9999.0,NW,18.4,-,N/A,,Unknown,310,2013-04-12 17:35:00
11:55 AM,26.6,24.8,93,30.06,-9999.0,NW,20.7,-,N/A,,Unknown,320,2013-04-12 17:55:00
12:15 PM,26.6,24.8,93,30.06,-9999.0,NW,19.6,-,N/A,,Unknown,320,2013-04-12 18:15:00
12:35 PM,26.6,24.8,93,30.06,-9999.0,NNW,18.4,-,N/A,,Unknown,330,2013-04-12 18:35:00
12:55 PM,28.4,26.6,93,30.05,-9999.0,NW,16.1,-,N/A,,Unknown,320,2013-04-12 18:55:00
1:15 PM,28.4,24.8,86,30.05,-9999.0,NNW,16.1,-,N/A,,Unknown,330,2013-04-12 19:15:00
1:35 PM,28.4,24.8,86,30.05,-9999.0,NNW,12.7,-,N/A,,Unknown,340,2013-04-12 19:35:00
1:55 PM,28.4,24.8,86,30.04,-9999.0,NNW,12.7,-,N/A,,Unknown,330,2013-04-12 19:55:00
2:15 PM,28.4,24.8,86,30.04,-9999.0,NNW,10.4,-,N/A,,Unknown,330,2013-04-12 20:15:00
2:35 PM,28.4,24.8,86,30.04,-9999.0,North,8.1,-,N/A,,Unknown,350,2013-04-12 20:35:00
2:55 PM,30.2,23.0,75,30.04,-9999.0,North,5.8,-,N/A,,Mostly Cloudy,350,2013-04-12 20:55:00
3:15 PM,30.2,23.0,75,30.03,-9999.0,NNE,5.8,-,N/A,,Overcast,20,2013-04-12 21:15:00
3:35 PM,30.2,23.0,75,30.02,-9999.0,North,5.8,-,N/A,,Mostly Cloudy,350,2013-04-12 21:35:00
3:55 PM,32.0,24.8,75,30.02,-9999.0,North,6.9,-,N/A,,Clear,10,2013-04-12 21:55:00
4:15 PM,32.0,24.8,75,30.02,-9999.0,North,5.8,-,N/A,,Clear,350,2013-04-12 22:15:00
4:35 PM,32.0,26.6,80,30.01,-9999.0,North,6.9,-,N/A,,Clear,10,2013-04-12 22:35:00
4:55 PM,32.0,24.8,75,30.00,-9999.0,North,6.9,-,N/A,,Clear,10,2013-04-12 22:55:00
5:15 PM,32.0,24.8,75,30.00,-9999.0,North,6.9,-,N/A,,Clear,10,2013-04-12 23:15:00
5:35 PM,32.0,23.0,69,29.99,-9999.0,North,5.8,-,N/A,,Clear,360,2013-04-12 23:35:00
5:55 PM,32.0,24.8,75,29.98,-9999.0,North,5.8,-,N/A,,Clear,10,2013-04-12 23:55:00
6:15 PM,32.0,23.0,69,29.97,-9999.0,NNE,5.8,-,N/A,,Clear,30,2013-04-13 00:15:00
6:35 PM,32.0,23.0,69,29.96,-9999.0,ENE,3.5,-,N/A,,Clear,60,2013-04-13 00:35:00
6:55 PM,33.8,23.0,65,29.95,-9999.0,ESE,9.2,-,N/A,,Clear,110,2013-04-13 00:55:00
7:15 PM,33.8,21.2,60,29.95,-9999.0,SE,8.1,-,N/A,,Clear,140,2013-04-13 01:15:00
7:35 PM,33.8,23.0,65,29.95,-9999.0,SE,8.1,-,N/A,,Clear,140,2013-04-13 01:35:00
7:55 PM,32.0,21.2,64,29.94,-9999.0,SE,11.5,-,N/A,,Clear,140,2013-04-13 01:55:00
8:15 PM,32.0,21.2,64,29.93,-9999.0,SE,15.0,-,N/A,,Clear,140,2013-04-13 02:15:00
8:35 PM,32.0,21.2,64,29.92,-9999.0,SE,18.4,-,N/A,,Clear,130,2013-04-13 02:35:00
8:55 PM,32.0,23.0,69,29.92,-9999.0,SE,21.9,-,N/A,,Clear,130,2013-04-13 02:55:00
9:15 PM,32.0,23.0,69,29.92,-9999.0,SE,19.6,-,N/A,,Clear,130,2013-04-13 03:15:00
9:35 PM,32.0,23.0,69,29.92,-9999.0,ESE,21.9,-,N/A,,Clear,120,2013-04-13 03:35:00
9:55 PM,32.0,21.2,64,29.92,-9999.0,ESE,21.9,-,N/A,,Clear,120,2013-04-13 03:55:00
10:15 PM,32.0,23.0,69,29.91,-9999.0,ESE,26.5,-,N/A,,Clear,120,2013-04-13 04:15:00
10:35 PM,32.0,23.0,69,29.90,-9999.0,SE,28.8,-,N/A,,Clear,130,2013-04-13 04:35:00
10:55 PM,32.0,23.0,69,29.90,-9999.0,ESE,26.5,-,N/A,,Clear,120,2013-04-13 04:55:00
11:15 PM,30.2,23.0,75,29.89,-9999.0,SE,23.0,-,N/A,,Clear,130,2013-04-13 05:15:00
11:35 PM,30.2,23.0,75,29.89,-9999.0,SE,19.6,-,N/A,,Clear,130,2013-04-13 05:35:00
11:55 PM,30.2,23.0,75,29.88,-9999.0,ESE,19.6,-,N/A,,Clear,120,2013-04-13 05:55:00